Location: Newark
(13.6797°N, 8.5297°E)
Time: 06:55:24
(UTC+00:00)

Courier 1B Rocket - Pass Details

Date: 25 January 2020
Orbit: 920 x 1202 km, 28.2° (Epoch: 17 February)

Event Time Altitude Azimuth Distance (km) Brightness Sun altitude
Rises 16:30:52 0° 299° (WNW) 3,632 8.6 10.9°
Reaches altitude 10° 16:33:34 10° 302° (WNW) 2,656 7.9 10.3°
Maximum altitude 16:39:54 69° 25° (NNE) 979 5.1 8.9°
Drops below altitude 10° 16:46:05 10° 108° (ESE) 2,602 6.8 7.5°
Sets 16:48:42 0° 110° (ESE) 3,553 7.5 6.9°
